125P/Spacewatch (2002)

Japanese version
Home page
Total 6,336 html files since Dec. 4, 1995
Updated on September 23, 2007

---------------------------------------------------------------------

* Profile

* Orbital Elements

Epoch 2002 Feb. 15.0 TT = JDT 2452320.5  
T 2002 Jan. 28.04771 TT                                 Muraoka 
q   1.5285830            (2000.0)            P               Q
n   0.17803743     Peri.   87.30198     -0.48502850     +0.87100822
a   3.1294055      Node   153.23664     -0.85532447     -0.45391326
e   0.5115420      Incl.    9.98146     -0.18211920     -0.18790270
P   5.54
From 158 observations 1991-1996, mean residual 0".59.

* Finding Charts

* Magnitudes Graph

        m1 = 14.0 + 5 log d + 13.0 log r          [   ,-55]  (             - 2001 Dec.  4)
        m1 =  6.4 + 5 log d + 45   log r(t - 20)  [-55,112]  (2001 Dec.  4 - 2002 May  20)
        m1 = 14.0 + 5 log d + 13.0 log r          [112,   ]  (2002 May  20 -             )

---------------------------------------------------------------------

The orbital elements are calculated by Kenji Muraoka.
The charts are made with StellaNavigator Ver.2.0 for Windows (AstroArts / ASCII).
The magnitudes graphs are made with Comet for Windows.

---------------------------------------------------------------------

Copyright(C) 1995-2008 Seiichi Yoshida (comet@aerith.net). All rights reserved.